Weather History for Morris, MN

Change the Weather History Date:

Friday, June 28, 2013

  Actual Average Record
Temperature  
Mean Temperature 72 °F -  
Max Temperature 80 °F 76 °F 91 °F (2001)
Min Temperature 64 °F 56 °F 46 °F (2004)
Cooling Degree Days 7    
Growing Degree Days 22 (Base 50)    
Moisture  
Dew Point 57 °F    
Average Humidity 57    
Maximum Humidity 78    
Minimum Humidity 39    
Precipitation  
Precipitation 0.00 in - - ()
Sea Level Pressure  
Sea Level Pressure 29.89 in    
Wind  
Wind Speed 15 mph (NW)    
Max Wind Speed 32 mph    
Max Gust Speed 40 mph    
Visibility 10 miles    
Events      
Averages and records for this station are not official NWS values.
T = Trace of Precipitation, MM = Missing Value Source: NWS Daily Summary

Daily Weather History Graph

Daily Weather History Graph

Search for Another Location

Airport:

Trip Planner

Search our weather history database for the weather conditions in past years. The results will help you decide how hot, cold, wet, or windy it might be!

Date:

Astronomy

Jun. 28, 2013 Rise Set
Actual Time 5:37 AM CDT 9:16 PM CDT
Civil Twilight 4:59 AM CDT 9:54 PM CDT
Nautical Twilight 4:08 AM CDT 10:45 PM CDT
Astronomical Twilight 3:00 AM CDT 11:53 PM CDT
Moon No Moon Rise 12:05 PM CDT (6/28)
Length of Visible Light 16h 55m
Length of Day
15h 39m
Waning Gibbous, 66% of the Moon is Illuminated
Jun 28
Waning Gibbous
Jun 29
Last Quarter
Jul 8
New
Jul 15
First Quarter
Jul 22
Full

Hourly Weather History & Observations

Time (CDT) Temp. Heat Index Dew Point Humidity Pressure Visibility Wind Dir Wind Speed Gust Speed Precip Events Conditions
12:10 AM 69.8 °F - 57.2 °F 64% 29.88 in 10.0 mi NW 8.1 mph - N/A   Clear
12:30 AM 66.2 °F - 57.2 °F 73% 29.88 in 10.0 mi NW 6.9 mph - N/A   Clear
12:50 AM 66.2 °F - 59.0 °F 78% 29.89 in 10.0 mi WNW 4.6 mph - N/A   Clear
1:10 AM 64.4 °F - 57.2 °F 77% 29.89 in 10.0 mi West 5.8 mph - N/A   Clear
1:30 AM 64.4 °F - 57.2 °F 77% 29.88 in 10.0 mi West 5.8 mph - N/A   Clear
1:50 AM 64.4 °F - 57.2 °F 77% 29.88 in 10.0 mi West 5.8 mph - N/A   Clear
2:10 AM 64.4 °F - 57.2 °F 77% 29.88 in 10.0 mi WNW 6.9 mph - N/A   Clear
2:30 AM 66.2 °F - 57.2 °F 73% 29.88 in 10.0 mi WNW 10.4 mph - N/A   Clear
2:50 AM 66.2 °F - 55.4 °F 68% 29.88 in 10.0 mi NW 12.7 mph - N/A   Clear
3:10 AM 66.2 °F - 55.4 °F 68% 29.89 in 10.0 mi NW 9.2 mph - N/A   Clear
3:30 AM 66.2 °F - 55.4 °F 68% 29.89 in 10.0 mi WNW 11.5 mph 16.1 mph N/A   Clear
3:50 AM 66.2 °F - 55.4 °F 68% 29.89 in 10.0 mi WNW 10.4 mph - N/A   Clear
4:10 AM 66.2 °F - 55.4 °F 68% 29.89 in 10.0 mi WNW 13.8 mph - N/A   Clear
4:30 AM 66.2 °F - 55.4 °F 68% 29.89 in 10.0 mi WNW 13.8 mph - N/A   Clear
4:50 AM 66.2 °F - 55.4 °F 68% 29.89 in 10.0 mi WNW 12.7 mph - N/A   Clear
5:10 AM 66.2 °F - 55.4 °F 68% 29.89 in 10.0 mi WNW 13.8 mph - N/A   Clear
5:30 AM 66.2 °F - 55.4 °F 68% 29.90 in 10.0 mi WNW 13.8 mph - N/A   Clear
5:50 AM 66.2 °F - 57.2 °F 73% 29.90 in 10.0 mi WNW 12.7 mph - N/A   Clear
6:10 AM 66.2 °F - 57.2 °F 73% 29.90 in 10.0 mi NW 12.7 mph - N/A   Clear
6:30 AM 66.2 °F - 57.2 °F 73% 29.89 in 10.0 mi NW 16.1 mph - N/A   Clear
6:50 AM 68.0 °F - 57.2 °F 68% 29.90 in 10.0 mi NW 16.1 mph 21.9 mph N/A   Clear
7:10 AM 68.0 °F - 57.2 °F 68% 29.90 in 10.0 mi NW 17.3 mph 24.2 mph N/A   Clear
7:30 AM 69.8 °F - 57.2 °F 64% 29.90 in 10.0 mi NW 18.4 mph 25.3 mph N/A   Clear
7:50 AM 69.8 °F - 57.2 °F 64% 29.90 in 10.0 mi NW 19.6 mph 26.5 mph N/A   Clear
8:10 AM 69.8 °F - 57.2 °F 64% 29.90 in 10.0 mi NW 20.7 mph 25.3 mph N/A   Clear
8:30 AM 71.6 °F - 57.2 °F 60% 29.89 in 10.0 mi NW 25.3 mph 28.8 mph N/A   Clear
8:50 AM 71.6 °F - 57.2 °F 60% 29.90 in 10.0 mi NW 23.0 mph 28.8 mph N/A   Clear
9:10 AM 73.4 °F - 57.2 °F 57% 29.89 in 10.0 mi NW 20.7 mph 32.2 mph N/A   Clear
9:30 AM 73.4 °F - 57.2 °F 57% 29.89 in 10.0 mi NW 25.3 mph 33.4 mph N/A   Clear
9:50 AM 73.4 °F - 57.2 °F 57% 29.89 in 10.0 mi NNW 24.2 mph 32.2 mph N/A   Clear
10:10 AM 73.4 °F - 55.4 °F 53% 29.89 in 10.0 mi NNW 27.6 mph 33.4 mph N/A   Clear
10:30 AM 75.2 °F - 55.4 °F 50% 29.89 in 10.0 mi NW 29.9 mph 36.8 mph N/A   Clear
10:50 AM 75.2 °F - 57.2 °F 53% 29.88 in 10.0 mi NW 26.5 mph 33.4 mph N/A   Clear
11:10 AM 75.2 °F - 55.4 °F 50% 29.88 in 10.0 mi NNW 29.9 mph 39.1 mph N/A   Clear
11:30 AM 77.0 °F - 55.4 °F 47% 29.89 in 10.0 mi NNW 32.2 mph 40.3 mph N/A   Scattered Clouds
11:50 AM 78.8 °F - 55.4 °F 44% 29.89 in 10.0 mi NNW 21.9 mph 38.0 mph N/A   Scattered Clouds
12:10 PM 78.8 °F - 55.4 °F 44% 29.90 in 10.0 mi NNW 21.9 mph 38.0 mph N/A   Scattered Clouds
12:30 PM 78.8 °F - 55.4 °F 44% 29.90 in 10.0 mi NNW 29.9 mph 39.1 mph N/A   Scattered Clouds
12:50 PM 77.0 °F - 55.4 °F 47% 29.90 in 10.0 mi NNW 26.5 mph 36.8 mph N/A   Mostly Cloudy
1:10 PM 75.2 °F - 57.2 °F 53% 29.90 in 10.0 mi NNW 28.8 mph 39.1 mph N/A   Mostly Cloudy
1:30 PM 77.0 °F - 59.0 °F 54% 29.90 in 10.0 mi NNW 24.2 mph 34.5 mph N/A   Mostly Cloudy
1:50 PM 78.8 °F - 57.2 °F 47% 29.89 in 10.0 mi NNW 25.3 mph 34.5 mph N/A   Scattered Clouds
2:10 PM 78.8 °F - 59.0 °F 51% 29.89 in 10.0 mi NNW 24.2 mph 35.7 mph N/A   Scattered Clouds
2:30 PM 78.8 °F - 57.2 °F 47% 29.89 in 10.0 mi NNW 24.2 mph 35.7 mph N/A   Mostly Cloudy
2:50 PM 78.8 °F - 57.2 °F 47% 29.89 in 10.0 mi NNW 24.2 mph 33.4 mph N/A   Scattered Clouds
3:10 PM 78.8 °F - 55.4 °F 44% 29.89 in 10.0 mi NNW 24.2 mph 28.8 mph N/A   Mostly Cloudy
3:30 PM 78.8 °F - 57.2 °F 47% 29.89 in 10.0 mi NNW 24.2 mph 35.7 mph N/A   Mostly Cloudy
3:50 PM 80.6 °F 80.8 °F 57.2 °F 45% 29.89 in 10.0 mi NNW 26.5 mph 33.4 mph N/A   Scattered Clouds
4:10 PM 80.6 °F 80.8 °F 57.2 °F 45% 29.89 in 10.0 mi NNW 24.2 mph 35.7 mph N/A   Scattered Clouds
4:30 PM 80.6 °F 80.8 °F 57.2 °F 45% 29.89 in 10.0 mi NNW 24.2 mph 32.2 mph N/A   Scattered Clouds
4:50 PM 80.6 °F 80.5 °F 55.4 °F 42% 29.88 in 10.0 mi NNW 28.8 mph 36.8 mph N/A   Scattered Clouds
5:10 PM 80.6 °F 80.3 °F 53.6 °F 39% 29.88 in 10.0 mi NNW 28.8 mph 35.7 mph N/A   Clear
5:30 PM 80.6 °F 80.3 °F 53.6 °F 39% 29.88 in 10.0 mi NNW 23.0 mph 36.8 mph N/A   Scattered Clouds
5:50 PM 80.6 °F 80.5 °F 55.4 °F 42% 29.88 in 10.0 mi NNW 23.0 mph 35.7 mph N/A   Clear
6:10 PM 80.6 °F 80.5 °F 55.4 °F 42% 29.88 in 10.0 mi NNW 25.3 mph 34.5 mph N/A   Clear
6:30 PM 80.6 °F 80.5 °F 55.4 °F 42% 29.87 in 10.0 mi NNW 26.5 mph 31.1 mph N/A   Scattered Clouds
6:50 PM 80.6 °F 80.5 °F 55.4 °F 42% 29.87 in 10.0 mi NNW 24.2 mph 29.9 mph N/A   Clear
7:10 PM 78.8 °F - 55.4 °F 44% 29.87 in 10.0 mi NNW 25.3 mph 32.2 mph N/A   Clear
7:30 PM 78.8 °F - 57.2 °F 47% 29.87 in 10.0 mi NNW 18.4 mph 26.5 mph N/A   Clear
7:50 PM 78.8 °F - 57.2 °F 47% 29.88 in 10.0 mi NNW 18.4 mph 28.8 mph N/A   Clear
8:10 PM 78.8 °F - 57.2 °F 47% 29.88 in 10.0 mi North 20.7 mph 26.5 mph N/A   Clear
8:30 PM 75.2 °F - 57.2 °F 53% 29.88 in 10.0 mi NNW 15.0 mph 26.5 mph N/A   Clear
8:50 PM 75.2 °F - 57.2 °F 53% 29.88 in 10.0 mi North 13.8 mph 19.6 mph N/A   Clear
9:10 PM 75.2 °F - 57.2 °F 53% 29.88 in 10.0 mi North 15.0 mph - N/A   Clear
9:30 PM 73.4 °F - 57.2 °F 57% 29.88 in 10.0 mi NNW 9.2 mph - N/A   Clear
9:50 PM 71.6 °F - 57.2 °F 60% 29.89 in 10.0 mi NNW 10.4 mph - N/A   Clear
10:10 PM 71.6 °F - 57.2 °F 60% 29.89 in 10.0 mi NNW 11.5 mph - N/A   Clear
10:30 PM 71.6 °F - 57.2 °F 60% 29.89 in 10.0 mi NNW 10.4 mph - N/A   Clear
10:50 PM 71.6 °F - 57.2 °F 60% 29.89 in 10.0 mi NNW 12.7 mph - N/A   Clear
11:10 PM 69.8 °F - 57.2 °F 64% 29.89 in 10.0 mi NNW 11.5 mph - N/A   Clear
11:30 PM 69.8 °F - 57.2 °F 64% 29.88 in 10.0 mi NNW 12.7 mph - N/A   Clear
11:50 PM 69.8 °F - 57.2 °F 64% 29.88 in 10.0 mi NW 11.5 mph - N/A   Clear